period_start,C,m1,H,J0,J1,J2,J3,J4,J5,JA,JB,JC,JD,JJ,JK,JN,#
2018-06-18 00:00:26,0.00,2.41,0.00,21.20,24.78,27.87,14.04,48.94,1015.16,2036.97,2487.05,2411.99,2801.95,599.83,598.67,35.38,0000 0000 0000 0000 000000
2018-06-18 00:05:27,0.01,2.41,0.00,21.22,24.80,27.86,14.01,48.96,1015.15,2036.95,2487.01,2411.93,2801.72,599.84,598.62,35.43,0000 0000 0000 0000 000000
2018-06-18 00:10:29,0.01,2.41,0.00,21.24,24.81,27.87,14.00,48.98,1015.16,2036.93,2487.01,2411.69,2801.33,600.07,598.87,35.48,0000 0000 0000 0000 000000
2018-06-18 00:15:30,0.01,2.41,0.00,21.26,24.82,27.88,14.02,48.97,1015.16,2036.75,2486.67,2411.21,2801.02,600.10,598.86,35.53,0000 0000 0000 0000 000000
2018-06-18 00:20:31,-0.01,2.41,0.00,21.28,24.84,27.89,14.01,49.02,1015.15,2036.55,2486.38,2411.00,2800.97,599.78,598.39,35.58,0000 0000 0000 0000 000000
2018-06-18 00:25:32,-0.00,2.41,0.00,21.31,24.85,27.91,14.01,49.06,1015.15,2036.34,2486.07,2410.99,2800.84,599.79,598.46,35.63,0000 0000 0000 0000 000000
2018-06-18 00:30:34,-0.01,2.41,0.00,21.32,24.87,27.88,13.95,48.80,1015.15,2036.14,2486.05,2410.97,2800.53,599.88,598.48,35.68,0000 0000 0000 0000 000000
2018-06-18 00:35:35,0.01,2.41,0.00,21.33,24.88,27.89,14.08,49.02,1015.15,2036.03,2486.01,2410.80,2800.06,599.73,598.50,35.73,0000 0000 0000 0000 000000
2018-06-18 00:40:36,0.03,2.41,0.00,21.35,24.90,27.92,14.06,48.94,1015.15,2036.01,2485.88,2410.24,2799.98,600.10,598.61,35.78,0000 0000 0000 0000 000000
2018-06-18 00:45:37,0.01,2.41,0.00,21.37,24.91,27.95,14.03,49.04,1015.15,2036.00,2485.55,2410.00,2799.80,600.11,598.53,35.83,0000 0000 0000 0000 000000
2018-06-18 00:50:39,0.01,2.41,0.00,21.39,24.92,27.95,14.01,49.02,1015.15,2036.00,2485.27,2410.00,2799.63,600.02,598.47,35.88,0000 0000 0000 0000 000000
2018-06-18 00:55:40,0.01,2.41,0.00,21.42,24.95,27.97,13.96,49.09,1015.15,2036.00,2485.09,2409.99,2799.33,599.85,598.38,35.93,0000 0000 0000 0000 000000
2018-06-18 01:00:41,0.00,2.41,0.00,21.42,24.96,28.00,14.04,48.95,1015.15,2036.00,2485.04,2409.98,2799.08,599.86,598.16,35.98,0000 0000 0000 0000 000000
2018-06-18 01:05:43,0.00,2.41,0.00,21.44,24.97,28.00,13.99,48.98,1015.15,2036.00,2485.01,2409.87,2799.01,599.91,598.23,36.03,0000 0000 0000 0000 000000
2018-06-18 01:10:44,0.01,2.41,0.00,21.46,24.98,28.02,13.95,48.92,1015.15,2036.00,2485.00,2409.47,2799.00,599.53,597.81,36.08,0000 0000 0000 0000 000000
2018-06-18 01:15:45,-0.00,2.41,0.00,21.47,25.00,28.04,13.96,48.99,1015.14,2035.99,2484.99,2409.25,2799.00,599.30,597.51,36.14,0000 0000 0000 0000 000000
2018-06-18 01:20:46,0.01,2.41,0.00,21.49,25.02,28.06,14.04,48.88,1015.15,2035.98,2484.98,2409.15,2798.98,599.83,598.11,36.19,0000 0000 0000 0000 000000
2018-06-18 01:25:47,-0.00,2.41,0.00,21.51,25.03,28.07,14.08,49.06,1015.15,2035.95,2484.96,2409.01,2798.93,599.96,598.13,36.24,0000 0000 0000 0000 000000
2018-06-18 01:30:49,-0.00,2.41,0.00,21.53,25.05,28.07,13.96,48.86,1015.15,2035.91,2484.93,2409.00,2798.79,599.63,597.81,36.29,0000 0000 0000 0000 000000
2018-06-18 01:35:50,-0.00,2.41,0.00,21.55,25.07,28.09,13.99,49.01,1015.11,2035.73,2484.67,2409.00,2798.35,600.28,598.46,36.34,0000 0000 0000 0000 000000
2018-06-18 01:40:51,-0.02,2.41,0.00,21.57,25.08,28.10,14.03,48.94,1014.96,2035.32,2484.13,2409.00,2798.04,599.98,597.64,36.39,0000 0000 0000 0000 000000
2018-06-18 01:45:52,-0.01,2.41,0.00,21.58,25.10,28.11,13.90,48.92,1015.03,2035.18,2484.05,2408.99,2798.01,599.87,597.84,36.44,0000 0000 0000 0000 000000
2018-06-18 01:50:54,-0.01,2.41,0.00,21.61,25.12,28.10,14.03,49.07,1015.00,2035.06,2484.01,2408.94,2798.00,600.33,598.22,36.49,0000 0000 0000 0000 000000
2018-06-18 01:55:55,0.01,2.41,0.00,21.62,25.14,28.16,13.98,49.02,1014.85,2035.01,2484.00,2408.63,2797.99,599.57,597.36,36.54,0000 0000 0000 0000 000000
2018-06-18 02:00:56,0.01,2.41,0.00,21.64,25.15,28.18,13.97,48.91,1014.68,2035.00,2484.00,2408.16,2797.96,600.24,597.80,36.59,0000 0000 0000 0000 000000
2018-06-18 02:05:57,0.00,2.41,0.00,21.66,25.17,28.20,14.03,48.92,1014.69,2035.00,2483.99,2408.03,2797.88,600.00,597.64,36.64,0000 0000 0000 0000 000000
2018-06-18 02:10:58,0.00,2.41,0.00,21.68,25.19,28.22,13.98,48.85,1014.68,2035.00,2483.97,2408.01,2797.69,599.89,597.52,36.69,0000 0000 0000 0000 000000
2018-06-18 02:16:00,0.02,2.41,0.00,21.69,25.21,28.19,14.01,48.95,1014.66,2035.00,2483.69,2408.00,2797.09,599.77,597.27,36.74,0000 0000 0000 0000 000000
2018-06-18 02:21:01,0.01,2.41,0.00,21.71,25.22,28.22,13.98,48.86,1014.67,2035.00,2483.39,2408.00,2797.02,599.91,597.44,36.79,0000 0000 0000 0000 000000
2018-06-18 02:26:03,0.00,2.41,0.00,21.73,25.25,28.25,14.02,49.08,1014.68,2035.00,2483.18,2407.99,2797.02,599.38,596.85,36.84,0000 0000 0000 0000 000000
2018-06-18 02:31:04,-0.00,2.41,0.00,21.75,25.26,28.30,13.97,49.01,1014.67,2034.98,2483.02,2407.97,2797.00,599.93,597.37,36.89,0000 0000 0000 0000 000000
2018-06-18 02:36:05,0.00,2.41,0.00,21.77,25.27,28.30,14.02,49.10,1014.66,2034.97,2483.01,2407.96,2797.00,600.13,597.38,36.94,0000 0000 0000 0000 000000
2018-06-18 02:41:06,0.01,2.41,0.00,21.79,25.30,28.29,14.00,48.92,1014.67,2034.95,2483.00,2407.78,2796.98,600.27,597.65,36.99,0000 0000 0000 0000 000000
2018-06-18 02:46:07,0.00,2.41,0.00,21.81,25.31,28.37,14.06,49.18,1014.66,2034.79,2482.99,2407.24,2796.85,599.98,597.28,37.04,0000 0000 0000 0000 000000
2018-06-18 02:51:08,0.01,2.42,0.00,21.82,25.33,28.37,13.95,49.05,1014.66,2034.67,2482.77,2407.02,2796.29,599.64,597.07,37.09,0000 0000 0000 0000 000000
2018-06-18 02:56:10,-0.04,2.42,0.00,21.84,25.35,28.38,13.97,48.92,1014.66,2034.51,2482.66,2407.01,2796.05,600.34,597.60,37.14,0000 0000 0000 0000 000000
2018-06-18 03:01:11,0.00,2.41,0.00,21.85,25.37,28.39,14.04,49.08,1014.66,2034.16,2482.34,2407.00,2796.01,600.10,597.34,37.20,0000 0000 0000 0000 000000
2018-06-18 03:06:13,-0.00,2.41,0.00,21.87,25.39,28.40,14.02,48.97,1014.66,2034.09,2482.02,2406.99,2796.00,600.07,597.17,37.25,0000 0000 0000 0000 000000
2018-06-18 03:11:14,0.00,2.41,0.00,21.89,25.41,28.44,14.01,49.01,1014.66,2034.04,2482.00,2406.98,2796.00,600.16,597.42,37.30,0000 0000 0000 0000 000000
2018-06-18 03:16:15,0.00,2.41,0.00,21.90,25.43,28.51,14.03,49.04,1014.66,2034.03,2482.00,2406.89,2795.98,600.15,597.31,37.35,0000 0000 0000 0000 000000
2018-06-18 03:21:17,0.01,2.41,0.00,21.93,25.45,28.47,13.95,48.98,1014.66,2034.01,2482.00,2406.70,2795.96,599.48,596.44,37.40,0000 0000 0000 0000 000000
2018-06-18 03:26:18,0.01,2.41,0.00,21.94,25.47,28.49,13.94,48.92,1014.66,2034.00,2481.98,2406.41,2795.76,599.89,597.00,37.45,0000 0000 0000 0000 000000
2018-06-18 03:31:19,0.01,2.42,0.00,21.97,25.49,28.50,13.98,48.90,1014.66,2034.00,2481.98,2406.10,2795.39,599.88,596.91,37.50,0000 0000 0000 0000 000000
2018-06-18 03:36:20,0.00,2.42,0.00,21.99,25.50,28.53,14.00,49.03,1014.62,2034.00,2481.99,2406.11,2795.34,599.85,596.82,37.55,0000 0000 0000 0000 000000
2018-06-18 03:41:21,0.01,2.42,0.00,22.01,25.52,28.56,13.97,48.98,1014.61,2034.00,2481.89,2406.02,2795.05,600.06,596.96,37.60,0000 0000 0000 0000 000000
2018-06-18 03:46:23,0.01,2.42,0.00,22.03,25.55,28.55,13.96,49.00,1014.50,2033.98,2481.63,2406.00,2795.00,599.91,596.66,37.65,0000 0000 0000 0000 000000
2018-06-18 03:51:24,0.01,2.42,0.00,22.04,25.56,28.60,14.00,49.07,1014.43,2033.98,2481.15,2406.00,2794.99,600.19,596.88,37.70,0000 0000 0000 0000 000000
2018-06-18 03:56:25,0.00,2.42,0.00,22.05,25.57,28.63,13.92,49.12,1014.36,2033.97,2481.02,2405.98,2794.98,600.02,596.57,37.75,0000 0000 0000 0000 000000
2018-06-18 04:01:27,-0.00,2.42,0.00,22.07,25.60,28.67,13.91,48.98,1014.27,2033.95,2481.01,2405.97,2794.95,599.62,596.26,37.80,0000 0000 0000 0000 000000
2018-06-18 04:06:28,0.00,2.42,0.00,22.09,25.61,28.67,13.97,49.04,1014.37,2033.90,2481.00,2405.83,2794.84,599.89,596.50,37.85,0000 0000 0000 0000 000000
2018-06-18 04:11:29,-0.02,2.42,0.00,22.11,25.62,28.69,13.96,49.02,1014.34,2033.62,2481.00,2405.49,2794.42,599.88,596.32,37.90,0000 0000 0000 0000 000000
2018-06-18 04:16:31,-0.01,2.42,0.00,22.12,25.65,28.70,13.97,48.98,1014.33,2033.36,2481.00,2405.34,2794.18,599.73,596.15,37.95,0000 0000 0000 0000 000000
2018-06-18 04:21:32,-0.01,2.42,0.00,22.14,25.66,28.72,13.97,48.95,1014.35,2033.10,2480.99,2405.08,2794.02,599.77,596.22,38.00,0000 0000 0000 0000 000000
2018-06-18 04:26:33,-0.01,2.42,0.00,22.15,25.68,28.74,14.02,48.99,1014.24,2033.04,2480.96,2405.01,2794.00,600.04,596.49,38.05,0000 0000 0000 0000 000000
2018-06-18 04:31:34,-0.00,2.42,0.00,22.18,25.70,28.75,14.00,48.98,1014.20,2033.02,2480.97,2405.01,2794.00,600.23,596.39,38.11,0000 0000 0000 0000 000000
2018-06-18 04:36:35,0.00,2.42,0.00,22.20,25.72,28.74,14.03,48.99,1014.19,2033.01,2480.89,2405.00,2794.00,600.24,596.61,38.16,0000 0000 0000 0000 000000
2018-06-18 04:41:37,0.01,2.42,0.00,22.22,25.73,28.74,13.95,49.10,1014.18,2033.01,2480.57,2405.00,2793.99,600.02,596.16,38.21,0000 0000 0000 0000 000000
2018-06-18 04:46:38,0.00,2.42,0.00,22.24,25.75,28.78,13.99,49.03,1014.18,2033.00,2480.08,2405.00,2793.97,599.87,596.07,38.26,0000 0000 0000 0000 000000
2018-06-18 04:51:39,0.01,2.42,0.00,22.25,25.77,28.81,14.07,48.91,1014.18,2033.00,2480.01,2404.96,2793.65,600.24,596.26,38.31,0000 0000 0000 0000 000000
2018-06-18 04:56:41,0.02,2.42,0.00,22.26,25.79,28.82,13.95,49.00,1014.18,2033.00,2480.00,2404.61,2793.10,599.94,596.05,38.36,0000 0000 0000 0000 000000
2018-06-18 05:01:42,0.01,2.42,0.00,22.29,25.80,28.83,13.93,49.05,1014.18,2033.00,2480.00,2404.25,2793.02,599.92,595.96,38.41,0000 0000 0000 0000 000000
2018-06-18 05:06:43,0.00,2.42,0.00,22.31,25.82,28.85,14.00,49.02,1014.17,2032.98,2479.98,2404.11,2793.01,599.90,596.00,38.46,0000 0000 0000 0000 000000
2018-06-18 05:11:44,0.00,2.42,0.00,22.32,25.85,28.83,13.99,49.05,1014.17,2032.98,2479.95,2404.02,2793.00,600.11,596.03,38.51,0000 0000 0000 0000 000000
2018-06-18 05:16:46,0.00,2.42,0.00,22.35,25.86,28.86,13.96,48.98,1014.17,2032.97,2479.72,2404.00,2792.99,600.08,595.98,38.56,0000 0000 0000 0000 000000
2018-06-18 05:21:47,0.01,2.42,0.00,22.38,25.88,28.90,13.91,48.83,1014.17,2032.93,2479.14,2404.00,2792.95,599.63,595.49,38.61,0000 0000 0000 0000 000000
2018-06-18 05:26:48,-0.01,2.42,0.00,22.39,25.90,28.91,14.03,48.92,1014.17,2032.81,2479.05,2404.00,2792.76,600.23,595.94,38.66,0000 0000 0000 0000 000000
2018-06-18 05:31:50,-0.03,2.42,0.00,22.42,25.92,28.91,13.96,48.92,1014.16,2032.45,2479.02,2403.97,2792.29,599.92,595.59,38.71,0000 0000 0000 0000 000000
2018-06-18 05:36:51,-0.02,2.42,0.00,22.44,25.94,28.94,14.01,48.88,1014.15,2032.19,2479.03,2403.96,2792.11,599.81,595.67,38.76,0000 0000 0000 0000 000000
2018-06-18 05:41:52,-0.00,2.42,0.00,22.46,25.96,28.95,13.99,48.73,1014.16,2032.04,2479.00,2403.64,2792.01,599.91,595.60,38.81,0000 0000 0000 0000 000000
2018-06-18 05:46:54,0.01,2.42,0.00,22.49,25.97,28.99,13.93,48.85,1014.14,2032.00,2479.00,2403.17,2792.00,599.82,595.46,38.86,0000 0000 0000 0000 000000
2018-06-18 05:51:55,0.00,2.42,0.00,22.51,26.00,28.98,13.97,48.92,1014.06,2032.01,2478.95,2403.04,2791.99,599.87,595.30,38.91,0000 0000 0000 0000 000000
2018-06-18 05:56:56,0.01,2.42,0.00,22.53,26.02,29.01,13.86,48.83,1014.11,2032.00,2478.40,2403.00,2791.96,599.59,595.05,38.96,0000 0000 0000 0000 000000
2018-06-18 06:01:57,0.01,2.42,0.00,22.54,26.03,29.00,13.96,48.85,1014.10,2032.00,2478.12,2403.00,2791.78,599.98,595.43,39.01,0000 0000 0000 0000 000000
2018-06-18 06:06:58,0.01,2.42,0.00,22.57,26.05,29.04,14.00,48.85,1013.92,2032.00,2478.02,2403.00,2791.27,600.12,595.37,39.07,0000 0000 0000 0000 000000
2018-06-18 06:11:59,0.00,2.42,0.00,22.60,26.07,29.04,13.95,48.84,1013.74,2032.00,2478.01,2402.97,2791.04,599.94,595.01,39.12,0000 0000 0000 0000 000000
2018-06-18 06:17:01,0.02,2.42,0.00,22.62,26.10,29.04,13.82,48.74,1013.71,2032.00,2477.99,2402.60,2791.00,599.81,594.92,39.17,0000 0000 0000 0000 000000
2018-06-18 06:22:02,0.01,2.42,0.00,22.65,26.12,29.06,13.97,48.76,1013.70,2031.99,2477.86,2402.07,2790.98,600.00,595.08,39.22,0000 0000 0000 0000 000000
2018-06-18 06:27:04,0.01,2.42,0.00,22.67,26.14,29.05,13.93,48.86,1013.70,2031.98,2477.41,2402.00,2790.91,599.83,594.82,39.27,0000 0000 0000 0000 000000
2018-06-18 06:32:05,0.01,2.42,0.00,22.69,26.16,29.05,13.93,48.78,1013.69,2031.98,2477.07,2402.00,2790.43,600.02,595.04,39.32,0000 0000 0000 0000 000000
2018-06-18 06:37:06,-0.00,2.42,0.00,22.72,26.17,29.08,13.99,48.87,1013.70,2031.96,2477.00,2401.99,2790.03,600.17,594.99,39.37,0000 0000 0000 0000 000000
2018-06-18 06:42:08,-0.03,2.42,0.00,22.75,26.20,29.07,13.92,48.81,1013.69,2031.65,2476.99,2401.88,2790.00,599.83,594.86,39.42,0000 0000 0000 0000 000000
2018-06-18 06:47:09,0.00,2.42,0.00,22.78,26.22,29.08,13.97,48.73,1013.69,2031.55,2476.96,2401.63,2789.98,600.29,594.96,39.47,0000 0000 0000 0000 000000
2018-06-18 06:52:10,0.01,2.42,0.00,22.81,26.24,29.06,13.86,48.76,1013.69,2031.40,2476.80,2401.18,2789.96,599.68,594.39,39.52,0000 0000 0000 0000 000000
2018-06-18 06:57:12,0.01,2.42,0.00,22.85,26.26,29.10,13.85,48.78,1013.69,2031.10,2476.16,2401.02,2789.29,599.84,594.46,39.57,0000 0000 0000 0000 000000
2018-06-18 07:02:13,0.00,2.42,0.00,22.88,26.29,29.11,13.86,48.87,1013.69,2031.01,2476.01,2401.00,2789.00,599.74,594.29,39.62,0000 0000 0000 0000 000000
2018-06-18 07:07:15,0.00,2.42,0.00,22.92,26.31,29.14,13.82,48.71,1013.69,2031.00,2476.00,2400.96,2789.00,599.77,594.18,39.67,0000 0000 0000 0000 000000
2018-06-18 07:12:16,0.01,2.42,0.00,22.95,26.34,29.13,13.81,48.73,1013.69,2031.00,2475.99,2400.70,2788.94,599.53,593.93,39.72,0000 0000 0000 0000 000000
2018-06-18 07:17:17,0.03,2.43,0.00,22.99,26.36,29.13,13.90,48.72,1013.69,2031.00,2475.83,2400.16,2788.51,599.76,594.15,39.77,0000 0000 0000 0000 000000
2018-06-18 07:22:18,0.01,2.43,0.00,23.02,26.39,29.13,13.83,48.90,1013.67,2030.98,2475.54,2400.03,2788.09,599.74,594.02,39.82,0000 0000 0000 0000 000000
2018-06-18 07:27:19,0.01,2.43,0.00,23.06,26.41,29.15,13.83,48.78,1013.62,2030.92,2475.13,2400.00,2788.01,599.67,593.81,39.87,0000 0000 0000 0000 000000
2018-06-18 07:32:21,-0.06,2.43,0.00,23.09,26.44,29.17,13.92,48.83,1013.54,2030.37,2475.00,2399.99,2787.99,599.93,594.06,39.93,0000 0000 0000 0000 000000
2018-06-18 07:37:22,-0.01,2.42,0.00,23.13,26.47,29.18,13.91,48.87,1013.45,2030.06,2475.00,2399.97,2787.94,600.01,593.87,39.98,0000 0000 0000 0000 000000
2018-06-18 07:42:23,0.09,2.43,0.00,23.16,26.50,29.18,13.90,48.87,1013.64,2030.01,2474.45,2399.32,2786.87,599.87,594.03,40.03,0000 0000 0000 0000 000000
2018-06-18 07:47:25,0.04,2.43,0.00,23.21,26.52,29.21,13.89,48.81,1013.68,2030.00,2473.84,2398.20,2785.89,600.25,594.06,40.08,0000 0000 0000 0000 000000
2018-06-18 07:52:26,0.08,2.43,0.00,23.25,26.55,29.23,13.94,48.77,1013.69,2030.00,2472.74,2397.10,2785.02,600.20,593.98,40.13,0000 0000 0000 0000 000000
2018-06-18 07:57:27,0.04,2.44,0.00,23.29,26.57,29.25,13.85,48.70,1013.68,2029.99,2472.06,2396.90,2784.17,599.98,593.71,40.18,0000 0000 0000 0000 000000
2018-06-18 08:02:28,0.02,2.44,0.00,23.33,26.61,29.28,13.92,48.85,1013.68,2029.98,2471.96,2396.34,2783.97,600.16,593.97,40.23,0000 0000 0000 0000 000000
2018-06-18 08:07:30,0.00,2.44,0.00,23.37,26.63,29.31,13.89,48.69,1013.66,2029.85,2471.70,2396.03,2783.70,599.92,593.47,40.28,0000 0000 0000 0000 000000
2018-06-18 08:12:31,-0.02,2.44,0.00,23.40,26.66,29.34,13.82,48.72,1013.65,2029.37,2471.15,2396.01,2783.12,599.86,593.36,40.33,0000 0000 0000 0000 000000
2018-06-18 08:17:32,-0.03,2.44,0.00,23.44,26.70,29.37,13.83,48.68,1013.64,2029.06,2471.00,2395.94,2782.95,599.59,593.05,40.38,0000 0000 0000 0000 000000
2018-06-18 08:22:33,0.03,2.44,0.00,23.54,26.73,29.43,13.90,48.82,1013.52,2029.01,2470.94,2395.43,2782.37,599.99,593.11,40.43,0000 0000 0000 0000 000000
2018-06-18 08:27:35,0.03,2.44,0.00,23.69,26.76,29.50,13.82,48.67,1013.42,2029.00,2470.46,2395.04,2782.02,600.28,592.96,40.48,0000 0000 0000 0000 000000
2018-06-18 08:32:36,0.01,2.44,0.00,23.82,26.79,29.54,13.87,48.59,1013.27,2029.00,2470.01,2394.95,2781.62,599.75,592.24,40.53,0000 0000 0000 0000 000000
2018-06-18 08:37:37,0.03,2.44,0.00,23.90,26.83,29.58,13.86,48.54,1013.24,2028.98,2469.97,2394.45,2781.08,600.13,592.38,40.58,0000 0000 0000 0000 000000
2018-06-18 08:42:39,0.01,2.44,0.00,23.94,26.86,29.67,13.88,48.55,1013.38,2028.90,2469.42,2394.04,2781.00,600.31,592.44,40.63,0000 0000 0000 0000 000000
2018-06-18 08:47:40,-0.04,2.44,0.00,23.94,26.90,29.71,13.83,48.60,1013.33,2028.47,2469.03,2393.99,2780.67,599.97,592.15,40.68,0000 0000 0000 0000 000000
2018-06-18 08:52:41,-0.01,2.44,0.00,23.86,26.94,29.68,13.73,48.53,1013.21,2028.09,2468.98,2393.87,2780.08,599.68,592.03,40.73,0000 0000 0000 0000 000000
2018-06-18 08:57:42,0.04,2.44,0.00,23.82,26.97,29.66,13.79,48.47,1013.22,2028.02,2468.52,2393.16,2780.00,600.21,592.60,40.78,0000 0000 0000 0000 000000
2018-06-18 09:02:43,0.00,2.44,0.00,23.82,27.01,29.66,13.80,48.41,1013.52,2028.00,2468.04,2393.00,2779.92,600.01,592.54,40.84,0000 0000 0000 0000 000000
2018-06-18 09:07:44,0.01,2.44,0.00,23.82,27.05,29.71,13.86,48.44,1013.70,2028.00,2468.00,2392.99,2779.22,600.16,592.72,40.89,0000 0000 0000 0000 000000
2018-06-18 09:12:46,0.00,2.44,0.00,23.83,27.08,29.74,13.85,48.49,1013.68,2028.00,2467.98,2392.88,2779.00,599.86,592.46,40.94,0000 0000 0000 0000 000000
2018-06-18 09:17:47,0.04,2.45,0.00,23.85,27.12,29.77,13.83,48.53,1013.34,2027.98,2467.42,2392.14,2778.97,600.05,592.47,40.99,0000 0000 0000 0000 000000
2018-06-18 09:22:48,0.01,2.45,0.00,23.87,27.16,29.80,13.87,48.57,1013.21,2027.96,2467.07,2392.04,2778.70,600.18,592.40,41.04,0000 0000 0000 0000 000000
2018-06-18 09:27:50,-0.06,2.45,0.00,23.90,27.20,29.84,13.81,48.61,1013.20,2027.54,2467.00,2392.00,2778.04,599.76,592.00,41.09,0000 0000 0000 0000 000000
2018-06-18 09:32:51,-0.01,2.44,0.00,23.94,27.24,29.86,13.87,48.48,1013.21,2027.04,2466.87,2391.89,2778.00,599.83,591.92,41.14,0000 0000 0000 0000 000000
2018-06-18 09:37:52,0.05,2.44,0.00,23.98,27.28,29.89,13.82,48.45,1013.52,2027.00,2466.30,2391.22,2777.67,600.16,592.46,41.19,0000 0000 0000 0000 000000
2018-06-18 09:42:53,0.01,2.45,0.00,24.03,27.31,29.92,13.85,48.47,1013.69,2027.00,2466.01,2391.00,2777.04,600.12,592.25,41.24,0000 0000 0000 0000 000000
2018-06-18 09:47:54,-0.00,2.45,0.00,24.07,27.36,29.95,13.85,48.50,1013.69,2026.97,2465.97,2390.98,2777.00,600.03,592.09,41.29,0000 0000 0000 0000 000000
2018-06-18 09:52:56,0.02,2.45,0.00,24.12,27.40,29.99,13.78,48.44,1013.68,2026.70,2465.53,2390.46,2776.52,600.19,592.27,41.34,0000 0000 0000 0000 000000
2018-06-18 09:57:57,-0.03,2.45,0.00,24.17,27.44,30.03,13.81,48.52,1013.63,2026.13,2465.01,2390.01,2776.02,600.19,592.16,41.39,0000 0000 0000 0000 000000
2018-06-18 10:02:58,-0.00,2.45,0.00,24.22,27.48,30.07,13.80,48.55,1013.61,2026.01,2464.99,2389.97,2775.96,599.95,591.77,41.44,0000 0000 0000 0000 000000
2018-06-18 10:07:59,0.03,2.45,0.00,24.29,27.53,30.11,13.81,48.61,1013.69,2026.00,2464.76,2389.69,2775.33,599.64,591.44,41.49,0000 0000 0000 0000 000000
2018-06-18 10:13:01,0.03,2.45,0.00,24.35,27.57,30.16,13.73,48.52,1013.69,2025.98,2464.15,2389.07,2775.01,599.58,591.37,41.54,0000 0000 0000 0000 000000
2018-06-18 10:18:02,-0.01,2.45,0.00,24.40,27.62,30.22,13.91,48.64,1013.69,2025.84,2464.01,2389.00,2774.93,600.30,591.82,41.59,0000 0000 0000 0000 000000
2018-06-18 10:23:03,-0.02,2.45,0.00,24.46,27.67,30.28,13.79,48.52,1013.70,2025.38,2463.80,2388.84,2774.25,599.89,591.19,41.64,0000 0000 0000 0000 000000
2018-06-18 10:28:05,0.02,2.45,0.00,24.51,27.72,30.32,13.78,48.64,1013.69,2025.08,2463.12,2388.21,2774.00,600.05,591.25,41.69,0000 0000 0000 0000 000000
2018-06-18 10:33:06,0.00,2.45,0.00,24.57,27.77,30.30,13.78,48.52,1013.69,2025.00,2463.00,2388.00,2773.89,600.11,591.22,41.75,0000 0000 0000 0000 000000
2018-06-18 10:38:07,0.04,2.45,0.00,24.61,27.82,30.32,13.78,48.50,1013.69,2025.00,2462.54,2387.77,2773.13,600.00,591.08,41.80,0000 0000 0000 0000 000000
2018-06-18 10:43:09,0.02,2.45,0.00,24.64,27.88,30.44,13.82,48.38,1013.69,2024.94,2462.02,2387.07,2772.89,599.95,591.02,41.85,0000 0000 0000 0000 000000
2018-06-18 10:48:10,-0.03,2.45,0.00,24.67,27.94,30.55,13.77,48.39,1013.69,2024.52,2461.85,2386.97,2772.13,599.98,590.99,41.90,0000 0000 0000 0000 000000
2018-06-18 10:53:11,0.00,2.45,0.00,24.70,28.00,30.83,13.87,48.46,1013.69,2024.06,2461.20,2386.38,2771.98,599.89,590.82,41.95,0000 0000 0000 0000 000000
2018-06-18 10:58:12,0.03,2.45,0.00,24.73,28.07,31.26,13.81,48.60,1013.69,2024.00,2461.01,2386.01,2771.35,599.95,590.84,42.00,0000 0000 0000 0000 000000
2018-06-18 11:03:14,0.06,2.45,0.00,24.77,28.14,31.78,13.79,48.59,1013.70,2023.99,2460.43,2385.48,2770.72,599.88,590.67,42.05,0000 0000 0000 0000 000000
2018-06-18 11:08:15,-0.02,2.46,0.00,24.80,28.21,32.19,13.83,48.60,1013.87,2023.76,2460.00,2385.01,2770.05,599.93,590.83,42.10,0000 0000 0000 0000 000000
2018-06-18 11:13:16,-0.01,2.45,0.00,24.82,28.28,32.42,13.87,48.57,1013.99,2023.11,2459.74,2384.65,2769.66,600.09,591.02,42.15,0000 0000 0000 0000 000000
2018-06-18 11:18:17,0.08,2.46,0.00,24.85,28.36,32.51,13.91,48.53,1014.09,2023.00,2458.74,2383.71,2768.41,599.93,590.81,42.20,0000 0000 0000 0000 000000
2018-06-18 11:23:18,0.03,2.46,0.00,24.86,28.45,32.59,13.90,48.57,1014.12,2022.87,2458.01,2383.00,2767.68,599.97,590.87,42.25,0000 0000 0000 0000 000000
2018-06-18 11:28:20,-0.01,2.46,0.00,24.87,28.53,32.62,13.82,48.40,1014.01,2022.16,2457.34,2382.29,2767.01,599.75,590.63,42.30,0000 0000 0000 0000 000000
2018-06-18 11:33:21,0.01,2.46,0.00,24.87,28.60,32.68,13.90,48.46,1014.12,2022.00,2457.00,2382.00,2766.40,599.94,590.80,42.35,0000 0000 0000 0000 000000
2018-06-18 11:38:23,0.03,2.46,0.00,24.89,28.68,32.64,13.88,48.39,1014.16,2021.96,2456.58,2381.72,2766.00,599.84,590.67,42.40,0000 0000 0000 0000 000000
2018-06-18 11:43:23,-0.04,2.46,0.00,24.88,28.74,32.00,13.91,48.31,1014.07,2021.22,2456.01,2381.04,2765.47,600.16,590.97,42.45,0000 0000 0000 0000 000000
2018-06-18 11:48:25,0.02,2.46,0.00,24.88,28.80,31.82,13.83,48.44,1014.01,2021.00,2455.62,2380.92,2764.99,600.08,590.81,42.50,0000 0000 0000 0000 000000
2018-06-18 11:53:26,0.05,2.46,0.00,24.89,28.85,32.02,13.87,48.36,1014.02,2020.98,2455.01,2380.13,2764.27,600.05,590.68,42.55,0000 0000 0000 0000 000000
2018-06-18 11:58:27,-0.01,2.46,0.00,24.88,28.89,32.27,13.85,48.52,1013.73,2020.80,2454.63,2379.99,2763.99,599.84,590.46,42.60,0000 0000 0000 0000 000000
2018-06-18 12:03:29,-0.02,2.46,0.00,24.87,28.92,32.37,13.91,48.54,1013.69,2020.23,2454.17,2379.84,2763.73,599.77,590.37,42.66,0000 0000 0000 0000 000000
2018-06-18 12:08:30,0.01,2.46,0.00,24.85,28.95,32.35,13.86,48.54,1013.69,2020.07,2453.98,2379.20,2763.08,599.72,590.36,42.71,0000 0000 0000 0000 000000
2018-06-18 12:13:31,0.01,2.46,0.00,24.84,28.96,32.34,13.97,48.58,1013.69,2020.00,2453.63,2379.01,2763.00,600.04,590.66,42.76,0000 0000 0000 0000 000000
2018-06-18 12:18:33,0.01,2.46,0.00,24.82,28.97,32.29,13.85,48.59,1013.69,2020.00,2453.16,2378.99,2762.90,599.87,590.52,42.81,0000 0000 0000 0000 000000
2018-06-18 12:23:34,0.01,2.46,0.00,24.80,28.97,32.23,13.93,48.63,1013.69,2020.00,2453.01,2378.96,2762.50,599.99,590.89,42.86,0000 0000 0000 0000 000000
2018-06-18 12:28:35,0.02,2.47,0.00,24.79,28.97,32.17,13.85,48.65,1013.67,2019.99,2452.98,2378.65,2762.03,599.97,590.82,42.91,0000 0000 0000 0000 000000
2018-06-18 12:33:36,0.02,2.47,0.00,24.77,28.97,32.13,13.91,48.65,1013.58,2019.98,2452.76,2378.11,2762.00,599.94,590.74,42.96,0000 0000 0000 0000 000000
2018-06-18 12:38:38,0.02,2.47,0.00,24.77,28.97,32.09,13.83,48.62,1013.43,2019.98,2452.09,2378.01,2761.98,599.55,590.31,43.01,0000 0000 0000 0000 000000
2018-06-18 12:43:39,0.00,2.47,0.00,24.77,28.97,32.05,13.79,48.69,1013.21,2019.97,2452.00,2378.00,2761.85,599.52,590.05,43.06,0000 0000 0000 0000 000000
2018-06-18 12:48:40,0.00,2.47,0.00,24.77,28.97,32.04,13.82,48.71,1013.20,2019.96,2452.00,2378.00,2761.73,599.97,590.61,43.11,0000 0000 0000 0000 000000
2018-06-18 12:53:41,0.01,2.47,0.00,24.76,28.95,31.99,13.95,48.80,1013.20,2019.96,2452.00,2378.00,2761.36,600.10,590.64,43.16,0000 0000 0000 0000 000000